BREEZE-KM DEB, 41722

Orbit data source: Space-Track

BREEZE-KM DEB, 41722 is space debris in LEO originally from a launch on Tue, 31 Mar 2015 UTC launched from the Plesetsk Missile And Space Complex (PKMTR). Debris objects in space refer to the collection of defunct objects orbiting the Earth. Examples of debris include non-operational satellites, rocket bodies, and fragments generated from explosions, collisions, or faulty payload assembly.

Loading next visibility...
Identifier
41722, 2015-020K
Orbit
LEO
Country
Flag of CISCIS
Related business
Manufacturer
Khrunichev
Mission
Spacecraft
Bus & Motor
Unknown
Mass
Unknown
Launch date (UTC)
2015-03-31 (10 years ago)
Launch vehicle
Unknown
Launch site
Plesetsk Missile And Space Complex (PKMTR)
Object type
Payload
Rocket body
Debris
Shape & HBR
Unknown
Radar Cross Section
Small (<0.1 m²)

Expand to show TLE details & history
Last TLE update: 3 days ago

TLE from 3 days ago
0 BREEZE-KM DEB
1 41722U 15020K   25241.30250421  .00000017  00000-0  26662-4 0  9999
2 41722  82.4856  88.2948 0179441 161.5105 199.2626 12.70517318454738
Epoch: 2025-08-29T07:15Z
TLE epoch observation values (Epoch: 2025-08-29T07:15:36.363Z)
Latitude
0.00004°
Longitude
1.64019°
Altitude
1,514.279 km
Speed
7.047 km/s
True Right ascension
05h 53m 10s
True Declination
0° 00' 00"
Sunlit
Object was in daylight at epoch
Visualization orbit readout
Latitude
Unknown
Longitude
Unknown
Altitude
Unknown
Speed
Unknown
Apparent Right ascension
Unknown
Apparent Declination
Unknown
Sunlit
N/A
Visualization observer readout
Local Sidereal Time
13:55:31
Azimuth
Unknown
Elevation
Unknown
Doppler factor
Unknown
Orbital elements
Apogee altitude
1,516.306 km
Perigee altitude
1,237.983 km
Semi-major axis
7,755.282 km
Eccentricity
0.01794
Inclination
82.4856°
RAAN
88.2948°
Arg. of periapsis
161.5105°
True anomaly
198.59834°
Mean anomaly
199.2626°
Eccentric anomaly
198.92908°
Mean motion
3.17795 °/min
Orbital period
113.28 mins
BSTAR
0.000026662
Loading maneuver chart data...
Computing Atmospheric mass density...
Loading historical data...
Loading historical data...
Loading historical data...
Loading historical data...
Loading historical data...
Loading historical data...
Loading historical data...

Documentation

Showing up to 5 results
|